Regional Weather Roundup
Issued by NWS Cleveland, OH

Home | Current Version | Previous Version | Graphics & Text | Print | Product List | Glossary On
Versions: 1 2 3 4 5 6 7 8 9 10 11 12 13 14 15 16 17 18 19 20 21 22 23 24 25 26 27 28 29 30 31 32 33 34 35 36 37 38 39 40 41 42 43 44 45 46 47 48 49 50
570
ASUS41 KCLE 211902
RWRCLE
OHIO REGIONAL WEATHER ROUNDUP
NATIONAL WEATHER SERVICE CLEVELAND, OH
300 PM EDT SAT APR 21 2018

NOTE: "FAIR" INDICATES FEW OR NO CLOUDS BELOW 12,000 FEET WITH NO
SIGNIFICANT WEATHER AND/OR OBSTRUCTIONS TO VISIBILITY.

OHZ001>008-015>018-024>027-034-035-043-044-212000-
   NORTHWEST OHIO

CITY           SKY/WX    TMP DP  RH WIND       PRES   REMARKS
DEFIANCE       FAIR      55  23  28 N5        30.42F
FINDLAY        FAIR      56  21  25 E8        30.41F
TOLEDO EXPRESS FAIR      55  24  30 CALM      30.43F
TOLEDO EXEC    FAIR      52  20  28 E5        30.45F
LIMA           FAIR      53  24  32 NE9       30.40F
$$

OHZ009>014-019>023-028>033-038-089-212000-
   NORTHEAST OHIO

CITY           SKY/WX    TMP DP  RH WIND       PRES   REMARKS
CLE-HOPKINS    CLOUDY    50  21  32 N12       30.46F
CLE-LAKEFRONT  FAIR      44  33  65 N9        30.45S
CUY CO. ARPT   CLOUDY    48  30  49 NW10      30.45F
LORAIN-ELYRIA  FAIR      50  12  21 N8        30.43F
ASHTABULA      FAIR      49  29  46 N8        30.44S
AKRON-CANTON   CLOUDY    55  18  23 N5        30.41F
WOOSTER        FAIR      52  21  29 N7        30.42F
MANSFIELD      FAIR      52  17  25 NW7       30.41F
YOUNGSTOWN     CLOUDY    54  26  34 VRB5      30.40F
$$

OHZ042-051>053-060>062-070>072-077>081-212000-
  SOUTHWEST OHIO

CITY           SKY/WX    TMP DP  RH WIND       PRES   REMARKS
CINC-COVINGTON CLOUDY    60  23  24 VRB6      30.35F
CINC-LUNKEN    FAIR      62  26  25 NE7       30.36F
HAMILTON       FAIR      60  21  22 NE8       30.38F
DAYTON         CLOUDY    56  21  25 NE7       30.40F
WRIGHT-PAT AFB FAIR      56  22  26 E6        30.39F
DAYTON GENERAL FAIR      59  21  23 NE5       30.37F
WILMINGTON     FAIR      59  30  33 NE10      30.37F
$$

OHZ036-037-039>041-045>050-054>059-063>069-073>076-082>088-212000-
  CENTRAL AND SOUTHEAST OHIO

CITY           SKY/WX    TMP DP  RH WIND       PRES   REMARKS
COLUMBUS       CLOUDY    59  15  18 N7        30.39F
OSU AIRPORT    FAIR      57  22  25 NE7       30.39F
BOLTON FIELD   SUNNY     57  19  23 CALM      30.40F
RICKENBACK AFB NOT AVBL
NEWARK         FAIR      59  23  25 VRB7      30.39S
MARION         FAIR      54  18  24 E12G18    30.41F
LANCASTER      FAIR      58  24  27 NE7       30.40S
ZANESVILLE     FAIR      59  23  25 NE8       30.38F
NEW PHILLY     FAIR      55  23  28 VRB5      30.40
$$




USA.gov is the U.S. government's official web portal to all federal, state and local government web resources and services.